******************************************************************************* JPL/HORIZONS ATLAS (C/2024 L5) 2025-Dec-12 17:59:12 Rec #:90004861 (+COV) Soln.date: 2025-Dec-12_11:12:30 # obs: 1046 (2024-2025) IAU76/J2000 helio. ecliptic osc. elements (au, days, deg., period=Julian yrs): EPOCH= 2460724.5 ! 2025-Feb-18.0000000 (TDB) RMSW= n.a. EC= 1.03735161723663 QR= 3.432414060445619 TP= 2460744.8966981457 OM= 139.1751915810742 W= 290.513068814856 IN= 166.5732036723196 A= -91.89465716305111 MA= -.02282067835414055 ADIST= 9.999999E99 PER= 9.999999E99 N= .001118842 ANGMOM= .045489826 DAN= 5.1287 DDN= 10.98687 L= 208.1355336 B= -12.5610278 MOID= 2.46187997 TP= 2025-Mar-10.3966981457 Comet physical (GM= km^3/s^2; RAD= km): GM= n.a. RAD= n.a. M1= 4.4 M2= 12.2 k1= 17.5 k2= 5. PHCOF= .030 COMET comments 1: soln ref.= JPL#30, data arc: 2024-06-14 to 2025-12-02 2: k1=17.5, k2=5., phase coef.=0.03; ******************************************************************************* ******************************************************************************* Ephemeris / WWW_USER Fri Dec 12 17:59:13 2025 Pasadena, USA / Horizons ******************************************************************************* Target body name: ATLAS (C/2024 L5) {source: JPL#30} Center body name: Solar System Barycenter (0) {source: DE441} Center-site name: BODY CENTER ******************************************************************************* Start time : A.D. 1950-Jan-01 00:00:00.0000 TDB Stop time : A.D. 2100-Jan-01 00:00:00.0000 TDB Step-size : 150 calendar years ******************************************************************************* Center geodetic : 0.0, 0.0, 0.0 {E-lon(deg),Lat(deg),Alt(km)} Center cylindric: 0.0, 0.0, 0.0 {E-lon(deg),Dxy(km),Dz(km)} Center radii : (undefined) Keplerian GM : 2.9630927493968080E-04 au^3/d^2 Small perturbers: Yes {source: SB441-N16} Output units : AU-D, deg, Julian Day Number (Tp) Calendar mode : Mixed Julian/Gregorian Output type : GEOMETRIC osculating elements Output format : 10 Reference frame : Ecliptic of J2000.0 ******************************************************************************* Initial IAU76/J2000 heliocentric ecliptic osculating elements (au, days, deg.): EPOCH= 2460724.5 ! 2025-Feb-18.0000000 (TDB) RMSW= n.a. EC= 1.03735161723663 QR= 3.432414060445619 TP= 2460744.8966981457 OM= 139.1751915810742 W= 290.513068814856 IN= 166.5732036723196 Equivalent ICRF heliocentric cartesian coordinates (au, au/d): X=-2.818599725175696E+00 Y=-1.357763348639945E+00 Z=-1.425004135195176E+00 VX=-6.869961883961754E-03 VY= 9.965270214800814E-03 VZ= 5.372876861879600E-03 Comet physical (GM= km^3/s^2; RAD= km): GM= n.a. RAD= n.a. M1= 4.4 M2= 12.2 k1= 17.5 k2= 5. PHCOF= .030 ******************************************************************************* JDTDB EC QR IN OM W Tp N MA TA A AD PR ******************************************************************************* $$SOE 2433282.500000000 = A.D. 1950-Jan-01 00:00:00.0000 TDB EC= 6.820533693601294E-01 QR= 7.969313146877114E+00 IN= 1.551517963949689E+02 OM= 1.372372442474299E+02 W = 2.410168430786966E+02 Tp= 2415005.548983854707 N = 7.859506134806593E-03 MA= 1.436478086369526E+02 TA= 1.704175133876381E+02 A = 2.506493976941600E+01 AD= 4.216056639195488E+01 PR= 4.580440473297739E+04 2488069.500000000 = A.D. 2100-Jan-01 00:00:00.0000 TDB EC= 1.031453180227919E+00 QR= 3.454355800022883E+00 IN= 1.667303622229632E+02 OM= 1.394164206891282E+02 W = 2.910974456716785E+02 Tp= 2460744.786897601094 N = 8.569224058982835E-04 MA= 2.341515889218797E+01 TA= 1.548102939047095E+02 A =-1.098253268824207E+02 AD= 9.999999999999998E+99 PR= 9.999999999999998E+99 $$EOE ******************************************************************************* TIME Barycentric Dynamical Time ("TDB" or T_eph) output was requested. This continuous coordinate time is equivalent to the relativistic proper time of a clock at rest in a reference frame co-moving with the solar system barycenter but outside the system's gravity well. It is the independent variable in the solar system relativistic equations of motion. TDB runs at a uniform rate of one SI second per second and is independent of irregularities in Earth's rotation. CALENDAR SYSTEM Mixed calendar mode was active such that calendar dates after AD 1582-Oct-15 (if any) are in the modern Gregorian system. Dates prior to 1582-Oct-5 (if any) are in the Julian calendar system, which is automatically extended for dates prior to its adoption on 45-Jan-1 BC. The Julian calendar is useful for matching historical dates. The Gregorian calendar more accurately corresponds to the Earth's orbital motion and seasons. A "Gregorian-only" calendar mode is available if such physical events are the primary interest. REFERENCE FRAME AND COORDINATES Ecliptic at the standard reference epoch Reference epoch: J2000.0 X-Y plane: adopted Earth orbital plane at the reference epoch Note: IAU76 obliquity of 84381.448 arcseconds wrt ICRF X-Y plane X-axis : ICRF Z-axis : perpendicular to the X-Y plane in the directional (+ or -) sense of Earth's north pole at the reference epoch. Symbol meaning [1 au= 149597870.700 km, 1 day= 86400.0 s]: JDTDB Julian Day Number, Barycentric Dynamical Time EC Eccentricity, e QR Periapsis distance, q (au) IN Inclination w.r.t X-Y plane, i (degrees) OM Longitude of Ascending Node, OMEGA, (degrees) W Argument of Perifocus, w (degrees) Tp Time of periapsis (Julian Day Number) N Mean motion, n (degrees/day) MA Mean anomaly, M (degrees) TA True anomaly, nu (degrees) A Semi-major axis, a (au) AD Apoapsis distance (au) PR Sidereal orbit period (day) ABERRATIONS AND CORRECTIONS Geometric osculating elements have NO corrections or aberrations applied. Computations by ... Solar System Dynamics Group, Horizons On-Line Ephemeris System 4800 Oak Grove Drive, Jet Propulsion Laboratory Pasadena, CA 91109 USA General site: https://ssd.jpl.nasa.gov/ Mailing list: https://ssd.jpl.nasa.gov/email_list.html System news : https://ssd.jpl.nasa.gov/horizons/news.html User Guide : https://ssd.jpl.nasa.gov/horizons/manual.html Connect : browser https://ssd.jpl.nasa.gov/horizons/app.html#/x API https://ssd-api.jpl.nasa.gov/doc/horizons.html command-line telnet ssd.jpl.nasa.gov 6775 e-mail/batch https://ssd.jpl.nasa.gov/ftp/ssd/horizons_batch.txt scripts https://ssd.jpl.nasa.gov/ftp/ssd/SCRIPTS Author : Jon.D.Giorgini@jpl.nasa.gov ******************************************************************************* !$$SOF CENTER = '@0' COMMAND = '2024 L5' OUT_UNITS = 'AU-D' START_TIME = '1950-01-01' STEP_SIZE = '150 years' STOP_TIME = '2100-01-01' TABLE_TYPE = 'ELEMENTS'